[[{"header":{"parameterUnit":"m.s-1","parameterCategory":1,"la1":30.2991,"la2":30.254,"lo1":-89.0895,"lo2":-89.0444,"dy":0.0017,"dx":0.0017,"nx":28,"ny":28,"refTime":"2024-04-08T09:00:00:Z","depth":0,"parameterNumber":2,"parameterNumberName":"U-component_of_WINDS"},"data":[0,0,0,0,0,0,0,0,0,0,0,0,0,0,0,0,0,0,0,0,0,0,0,0,0,0,0,0,0,0,0,0,0,0,0,0,0,0,0,0,0,0,0,0,0,0,0,0,0,0,0,0,0,0,0,0,0,0,-4.3492,-4.3492,0,-4.3542,-4.3542,-4.3543,-4.3507,-4.3506,-4.3504,-4.3503,-4.3556,-4.3559,-4.3562,0,0,0,0,0,0,0,0,0,0,0,0,0,-4.3367,-4.337,-4.3491,-4.3492,-4.3493,-4.3541,-4.3542,-4.3543,-4.3508,-4.3506,-4.3504,-4.3502,-4.3555,-4.3559,-4.3562,0,0,0,0,0,0,0,0,0,0,0,0,0,-4.342,-4.3371,-4.3491,-4.3481,-4.3481,-4.3541,-4.3542,-4.3543,-4.3508,-4.3506,-4.3503,-4.3501,-4.3554,-4.3558,-4.3563,-4.3637,0,0,-4.3576,-4.3578,0,0,0,0,0,0,0,0,-4.3417,-4.3424,-4.3482,-4.3482,-4.3481,-4.3516,-4.3518,-4.3575,-4.3509,-4.3498,-4.3503,-4.35,-4.3545,-4.355,-4.3564,-4.3639,-4.3642,-4.3576,-4.3579,-4.3581,-4.3582,0,0,0,0,0,0,0,-4.3413,-4.3422,-4.3511,-4.3483,-4.3483,-4.3475,-4.3479,-4.3528,-4.3534,-4.3499,-4.3496,-4.3502,-4.3544,-4.356,-4.3565,-4.3642,-4.3576,-4.358,-4.3583,-4.3584,-4.378,-4.3782,0,0,0,0,0,0,-4.341,-4.3419,-4.351,-4.3513,-4.3443,-4.3479,-4.3484,-4.3507,-4.3533,-4.3535,-4.3504,-4.3501,-4.3554,-4.356,-4.3567,-4.3654,-4.3581,-4.3585,-4.3587,-4.3777,-4.378,-4.3783,0,0,0,0,0,0,-4.3408,-4.3419,-4.3508,-4.3465,-4.3476,-4.3483,-4.351,-4.3509,-4.3525,-4.3538,-4.3539,-4.352,-4.3552,-4.3561,-4.3619,-4.3656,-4.3587,-4.3591,-4.3774,-4.3778,-4.3782,-4.383,0,0,0,0,0,0,-4.3404,-4.3418,-4.3446,-4.3466,-4.3478,-4.3559,-4.3512,-4.3512,-4.3533,-4.3528,-4.3552,-4.3554,-4.3551,-4.3613,-4.3624,-4.366,-4.3594,-4.3771,-4.3776,-4.378,-4.3825,-4.3835,-4.3844,0,0,0,0,0,-4.34,-4.3458,-4.3447,-4.3458,-4.3513,-4.3561,-4.3568,-4.3563,-4.3536,-4.3564,-4.3572,-4.3553,-4.3651,-4.3619,-4.3631,-4.367,-4.3768,-4.3774,-4.378,-4.3821,-4.3833,-4.3843,0,0,0,0,0,0,-4.3442,-4.3461,-4.3449,-4.3515,-4.3537,-4.3555,-4.359,-4.3576,-4.3606,-4.36,-4.3594,-4.36,-4.366,-4.3671,-4.3636,-4.3742,-4.3705,-4.3714,-4.3732,-4.3744,-4.3753,-4.3748,-4.3598,0,0,0,0,0,-4.3459,-4.3496,-4.351,-4.3567,-4.3579,-4.3583,-4.3603,-4.3597,-4.3619,-4.3629,-4.3641,-4.3664,-4.3699,-4.3723,-4.3756,-4.3827,-4.3832,-4.386,-4.3869,-4.3876,-4.3883,-4.392,-4.3933,-4.3802,-4.3802,-4.3802,0,0,-4.3495,-4.3509,-4.3533,-4.3576,-4.3592,-4.363,-4.359,-4.3633,-4.3661,-4.3635,-4.369,-4.37,-4.3725,-4.379,-4.3819,-4.3801,-4.3921,-4.3884,-4.389,-4.3892,-4.3928,-4.394,-4.3951,-4.3806,-4.3805,-4.3805,0,0,-4.3578,-4.3594,-4.3642,-4.3659,-4.3683,-4.3685,-4.3697,-4.3718,-4.3723,-4.3778,-4.3759,-4.3793,-4.3855,-4.3873,-4.389,-4.3982,-4.3965,-4.3993,-4.404,-4.4076,-4.4087,-4.4096,-4.4126,-4.4138,-4.4,-4.4,-4.4,0,-4.3619,-4.3675,-4.3669,-4.3712,-4.3731,-4.371,-4.3759,-4.3776,-4.381,-4.3824,-4.3803,-4.388,-4.3895,-4.3963,-4.3985,-4.4001,-4.4013,-4.3989,-4.4086,-4.4095,-4.4103,-4.4132,-4.4144,-4.4003,-4.4003,-4.4003,-4.4002,0,-4.3724,-4.3763,-4.3799,-4.3832,-4.3855,-4.3902,-4.3903,-4.3928,-4.392,-4.3925,-4.3981,-4.3999,-4.4035,-4.4052,-4.4046,-4.4119,-4.4107,-4.4086,-4.4048,-4.4119,-4.4146,-4.4157,-4.4008,-4.4007,-4.4006,-4.4005,0,0,-4.3833,-4.3862,-4.3875,-4.3889,-4.3915,-4.3945,-4.3991,-4.4025,-4.4046,-4.4071,-4.4108,-4.4161,-4.4142,-4.4162,-4.4158,-4.419,-4.4259,-4.4166,-4.4166,-4.4181,-4.4339,-4.4353,-4.4366,-4.4249,-4.4252,-4.4253,-4.4336,0,-4.3916,-4.3994,-4.399,-4.4063,-4.4098,-4.4079,-4.4118,-4.4139,-4.4145,-4.4176,-4.4183,-4.422,-4.4193,-4.4204,-4.4236,-4.4244,-4.4291,-4.4238,-4.4283,-4.4285,-4.4275,-4.438,-4.4395,-4.4472,-4.4347,-4.4349,-4.435,0,-4.4023,-4.4051,-4.4127,-4.4146,-4.4161,-4.4196,-4.4227,-4.4258,-4.4281,-4.4283,-4.4305,-4.4296,-4.4342,-4.4304,-4.4367,-4.4332,-4.4351,-4.4358,-4.4361,-4.4363,-4.432,-4.4383,-4.4497,-4.4508,-4.4368,-4.4366,-4.4365,0,-4.4093,-4.4149,-4.4202,-4.4215,-4.4239,-4.4264,-4.4276,-4.4296,-4.4317,-4.4345,-4.4358,-4.4392,-4.441,-4.4436,-4.4436,-4.4409,-4.4499,-4.4462,-4.4502,-4.4501,-4.4519,-4.4518,-4.4636,-4.4535,-4.4535,-4.4535,-4.4535,0,-4.4185,-4.4232,-4.4233,-4.4265,-4.4317,-4.4313,-4.4364,-4.4374,-4.4392,-4.4426,-4.4412,-4.4444,-4.4443,-4.4476,-4.4477,-4.4528,-4.4537,-4.4539,-4.4538,-4.4539,-4.4539,-4.4549,-4.4543,-4.4538,-4.4537,-4.4537,-4.4536,0,-4.4271,-4.4274,-4.4329,-4.4348,-4.4354,-4.4391,-4.4407,-4.4438,-4.4443,-4.4486,-4.4495,-4.4504,-4.4541,-4.4544,-4.4589,-4.4589,-4.465,-4.4645,-4.4642,-4.464,-4.4679,-4.4674,-4.4806,-4.4822,-4.4713,-4.4714,-4.4715,0,-4.4328,-4.4363,-4.4386,-4.4407,-4.4419,-4.4454,-4.4475,-4.4473,-4.4495,-4.4524,-4.4551,-4.4587,-4.4615,-4.4677,-4.4687,-4.4721,-4.4715,-4.4758,-4.4719,-4.4719,-4.4713,-4.471,-4.4712,-4.4765,-4.4766,-4.4767,-4.4768,0,-4.4429,-4.4428,-4.4458,-4.4489,-4.4515,-4.4539,-4.4562,-4.458,-4.4581,-4.4607,-4.4645,-4.4667,-4.4712,-4.4748,-4.478,-4.4793,-4.4781,-4.4781,-4.4791,-4.4791,-4.4787,-4.4788,-4.466,-4.4777,-4.4776,-4.4776,-4.4775,-4.4775,-4.45,-4.453,-4.455,-4.4584,-4.4601,-4.4623,-4.4652,-4.4661,-4.4692,-4.4727,-4.4725,-4.4766,-4.4788,-4.4831,-4.4846,-4.4879,-4.4864,-4.488,-4.4883,-4.4886,-4.4889,-4.4784,-4.4885,-4.4885,-4.4885,-4.4884,-4.4884,0,-4.4598,-4.461,-4.4642,-4.4674,-4.47,-4.4687,-4.4711,-4.4735,-4.4771,-4.4792,-4.4821,-4.4864,-4.4899,-4.4912,-4.4946,-4.497,-4.4965,-4.4978,-4.4975,-4.4978,-4.4902,-4.4888,-4.4982,-4.4982,-4.4982,-4.4982,-4.4982,-4.4982,-4.4652,-4.4702,-4.4704,-4.4762,-4.4774,-4.4813,-4.4828,-4.4848,-4.4865,-4.4913,-4.4942,-4.495,-4.4968,-4.5003,-4.5035,-4.5038,-4.505,-4.5066,-4.5066,-4.4994,-4.4984,-4.4974,-4.4961,-4.5069,-4.5069,-4.514,-4.514,-4.5141]},{"header":{"parameterUnit":"m.s-1","parameterCategory":1,"la1":30.2991,"la2":30.254,"lo1":-89.0895,"lo2":-89.0444,"dy":0.0017,"dx":0.0017,"nx":28,"ny":28,"refTime":"2024-04-08T09:00:00:Z","depth":0,"parameterNumber":3,"parameterNumberName":"V-component_of_WINDS"},"data":[0,0,0,0,0,0,0,0,0,0,0,0,0,0,0,0,0,0,0,0,0,0,0,0,0,0,0,0,0,0,0,0,0,0,0,0,0,0,0,0,0,0,0,0,0,0,0,0,0,0,0,0,0,0,0,0,0,0,4.1343,4.1344,0,4.1466,4.1468,4.1469,4.157,4.1571,4.1572,4.1573,4.1699,4.1701,4.1703,0,0,0,0,0,0,0,0,0,0,0,0,0,4.1192,4.1195,4.1343,4.1344,4.1346,4.1466,4.1468,4.147,4.157,4.1571,4.1573,4.1574,4.1698,4.1701,4.1704,0,0,0,0,0,0,0,0,0,0,0,0,0,4.1281,4.1195,4.1342,4.141,4.1418,4.1466,4.1468,4.147,4.157,4.1571,4.1573,4.1575,4.1697,4.1701,4.1704,4.1694,0,0,4.1715,4.1716,0,0,0,0,0,0,0,0,4.1276,4.1286,4.1399,4.1406,4.1414,4.1505,4.1461,4.1545,4.1569,4.1512,4.1573,4.1575,4.1633,4.1642,4.1661,4.17,4.1706,4.1715,4.1717,4.1719,4.172,0,0,0,0,0,0,0,4.1269,4.1282,4.1392,4.14,4.141,4.1434,4.1449,4.1477,4.1562,4.1517,4.1525,4.1538,4.1637,4.1658,4.1665,4.1707,4.1715,4.1718,4.172,4.1722,4.1744,4.1743,0,0,0,0,0,0,4.1253,4.1276,4.1388,4.1395,4.1347,4.1436,4.1452,4.1474,4.1562,4.1577,4.1537,4.1542,4.1651,4.1661,4.167,4.1665,4.1719,4.1722,4.1724,4.1746,4.1744,4.1742,0,0,0,0,0,0,4.1249,4.1262,4.1383,4.1338,4.1355,4.1437,4.1461,4.1476,4.1496,4.1577,4.1592,4.1542,4.1653,4.1665,4.1688,4.1671,4.1724,4.1727,4.1747,4.1745,4.1743,4.1654,0,0,0,0,0,0,4.1245,4.126,4.1258,4.1337,4.1357,4.1399,4.146,4.1477,4.1502,4.1511,4.1586,4.16,4.1655,4.1682,4.1691,4.1677,4.173,4.1749,4.1746,4.1744,4.1659,4.1649,4.1641,0,0,0,0,0,4.1239,4.1228,4.1257,4.127,4.1356,4.1398,4.1409,4.1473,4.15,4.1499,4.155,4.1598,4.167,4.1683,4.1695,4.1681,4.1751,4.1747,4.1744,4.1663,4.1651,4.1641,0,0,0,0,0,0,4.1144,4.1239,4.1273,4.1287,4.1333,4.1414,4.1414,4.1458,4.1497,4.1504,4.158,4.1596,4.1611,4.1648,4.166,4.1676,4.1717,4.1715,4.1652,4.1641,4.1632,4.1624,4.1733,0,0,0,0,0,4.1125,4.1151,4.1233,4.1237,4.1259,4.1332,4.1353,4.1397,4.1449,4.1469,4.1522,4.1569,4.1603,4.1624,4.1659,4.1664,4.1682,4.166,4.1651,4.1643,4.1642,4.1648,4.1639,4.1731,4.1731,4.1731,0,0,4.1086,4.1141,4.1153,4.122,4.1261,4.1286,4.1348,4.1372,4.1392,4.1472,4.1498,4.1538,4.1595,4.1609,4.1618,4.1641,4.162,4.1639,4.1632,4.1635,4.1643,4.1634,4.1627,4.1729,4.1729,4.1729,0,0,4.1028,4.1071,4.1081,4.112,4.1182,4.123,4.1232,4.1306,4.1336,4.1363,4.1424,4.1447,4.1504,4.1543,4.157,4.1524,4.1569,4.1533,4.1486,4.1491,4.1484,4.1478,4.1462,4.1456,4.1531,4.1531,4.153,0,4.0971,4.1013,4.1079,4.11,4.1128,4.1201,4.1211,4.1246,4.1315,4.1333,4.1357,4.1429,4.1473,4.1497,4.1486,4.1505,4.1509,4.1526,4.1479,4.1474,4.1469,4.1456,4.145,4.1526,4.1526,4.1527,4.1527,0,4.094,4.0968,4.0967,4.1033,4.106,4.1075,4.1144,4.1163,4.1205,4.125,4.1276,4.1331,4.1379,4.1387,4.1428,4.1417,4.143,4.1465,4.1508,4.1455,4.1443,4.1439,4.1519,4.1521,4.1522,4.1523,0,0,4.0829,4.093,4.0929,4.096,4.1032,4.1054,4.1072,4.1119,4.1134,4.1179,4.1196,4.1241,4.1274,4.1305,4.135,4.1354,4.1316,4.139,4.1392,4.1375,4.1308,4.1282,4.1275,4.1345,4.1344,4.1344,4.1303,0,4.0784,4.082,4.088,4.0897,4.0923,4.0992,4.1008,4.1053,4.1096,4.1124,4.1171,4.1202,4.1243,4.1262,4.1269,4.1319,4.1303,4.1322,4.1362,4.1363,4.1348,4.1269,4.1242,4.1201,4.1299,4.1298,4.1298,0,4.0737,4.0778,4.0797,4.0867,4.088,4.0893,4.0941,4.0967,4.1019,4.105,4.1083,4.1132,4.1154,4.1191,4.1222,4.1234,4.1253,4.128,4.128,4.1288,4.1329,4.1276,4.119,4.1184,4.1291,4.1292,4.1292,0,4.0655,4.0715,4.0734,4.0758,4.084,4.0847,4.0882,4.0936,4.096,4.1001,4.1018,4.106,4.1084,4.1116,4.1175,4.1196,4.12,4.1242,4.1226,4.1225,4.1226,4.1225,4.1143,4.1234,4.1234,4.1234,4.1235,0,4.06,4.0609,4.0699,4.0711,4.0724,4.0791,4.0802,4.0842,4.089,4.0911,4.0972,4.099,4.1067,4.1094,4.114,4.1159,4.1169,4.1194,4.1207,4.119,4.1187,4.1206,4.1211,4.1233,4.1233,4.1234,4.1234,0,4.0512,4.0572,4.0598,4.0673,4.0692,4.0698,4.0762,4.0776,4.0821,4.0847,4.0857,4.0928,4.0963,4.1024,4.1077,4.1108,4.1118,4.1138,4.1101,4.1109,4.109,4.1092,4.1019,4.1013,4.1105,4.1104,4.1103,0,4.0474,4.0483,4.0558,4.0577,4.0609,4.0638,4.0663,4.0729,4.0752,4.0812,4.0819,4.0859,4.0894,4.0947,4.1003,4.1043,4.1066,4.1037,4.1072,4.1055,4.1067,4.1067,4.1069,4.103,4.1029,4.1027,4.1027,0,4.04,4.0429,4.0463,4.0507,4.0535,4.0572,4.0613,4.0624,4.07,4.0723,4.0759,4.0787,4.084,4.0879,4.0926,4.0962,4.1007,4.1015,4.1014,4.0998,4.0976,4.0989,4.1081,4.1017,4.1018,4.1018,4.1019,4.1019,4.0338,4.0349,4.0404,4.0439,4.0476,4.0513,4.053,4.0577,4.0608,4.0657,4.0694,4.0728,4.0779,4.0848,4.088,4.0908,4.0929,4.0926,4.0926,4.0925,4.0919,4.097,4.0916,4.0917,4.0917,4.0917,4.0918,0,4.0269,4.0307,4.0339,4.0394,4.0421,4.046,4.0507,4.0527,4.0556,4.0601,4.0634,4.0676,4.0713,4.0771,4.0813,4.0824,4.0845,4.0833,4.0834,4.0841,4.0898,4.0895,4.0814,4.0814,4.0814,4.0814,4.0814,4.0814,4.0237,4.0258,4.0293,4.0333,4.0372,4.0405,4.0429,4.0462,4.0498,4.0542,4.0573,4.0611,4.0661,4.0706,4.0742,4.0758,4.0772,4.0753,4.0775,4.0827,4.0837,4.0846,4.0845,4.0754,4.0754,4.0717,4.0717,4.0717]}]]